Mlle Axel Baron

Mlle Axel Baron

Statistiques 2026

  • Courses courues : 271
  • Nb de victoires : 24
  • Nb de places : 74
  • Écart gagnant : 9
  • Réussite à la gagne : 9%
  • Réussite à la place : 27%
Musique : 0p 8p 5p 9p 11p 6p 6p 2p 2p 1p 4p 1p 7p 4p 4p 8p 15p 5p
DateRangCatégorieAlloc.Dist.HippodromeChevalPoidsSpé.
18/04/24 5 Galop 17 000€ Nantes Celtic Aryaan 60 Plat
18/04/24 5 Galop 15 000€ Nantes Indian Soul 55,5 Plat
06/05/24 2 Galop 15 000€ Nantes Oceane Pearl 56,5 Plat
06/05/24 4 Galop 12 000€ Nantes Piccinelli 56 Plat
06/05/24 7 Galop 13 500€ Nantes Kastelle Beaufeu 62,5 Plat
18/06/24 8 Galop 27 500€ Nantes Jeannette 63,5 Plat
03/07/24 6 Galop 17 000€ Nantes Friday I'm In Love 56,5 Plat
03/07/24 1 Galop 15 000€ Nantes Cream Ice 60 Plat
19/10/24 4 Galop 15 000€ Nantes L'Epopee Allen 62,5 Plat
01/11/24 6 Galop 18 000€ Nantes Born To Win 56 Plat
01/11/24 6 Galop 60 000€ Nantes In Front 57,5 Plat lire

N'a été qu'un simple figurant.

01/11/24 6 Galop 15 000€ Nantes Karma du Grenat 60 Plat lire

Une des animatrices, a nettement faibli pour finir.

01/11/24 4 Galop 17 000€ Nantes Mister Power 55 Plat lire

Après avoir longtemps patienté en retrait, a bien conclu pour venir partager la quatrième place.

30/03/25 5 Galop 15 000€ Nantes Piano Bar 56 Plat
30/03/25 6 Galop 17 000€ Nantes Celtic Aryaan 61,5 Plat
09/04/25 3 Galop 12 000€ Nantes Choeur des Anges 57 Plat
09/04/25 5 Galop 20 000€ Nantes Miss Davier 58 Plat lire

Après avoir attendu à l'arrière-garde, n'a pas trop mal conclu.

09/04/25 6 Galop 21 000€ Nantes Bygoudine 56,5 Plat lire

Longtemps au sein du peloton, n'a pu que terminer honorablement.

09/04/25 11 Galop 13 000€ Nantes Or Bleu du Grenat 58 Plat
05/05/25 4 Galop 14 000€ Nantes What Else 56 Plat
22/05/25 12 Galop 17 000€ Nantes Time To Parley 54,5 Plat lire

Rapidement contrainte d'évoluer en troisième épaisseur le nez au vent, a nettement marqué le pas dans la phase finale.

22/05/25 9 Galop 21 000€ Nantes King's Light 58 Plat
17/06/25 13 Galop 53 000€ Nantes Gaillard 58,5 Plat lire

N'a joué aucun rôle utile.

15/10/25 8 Galop 14 400€ Nantes Mr Goodnight 57,5 Plat lire

N'a joué aucun rôle utile.

15/10/25 3 Galop 16 300€ Nantes Miss Davier 60,5 Plat lire

Après avoir longtemps patienté en retrait, a conclu fort honorablement.

15/10/25 11 Galop 16 300€ Nantes By Far 57 Plat lire

N'a joué aucun rôle utile.

12/11/25 7 Galop 14 400€ Nantes My Darling 56 Plat
12/11/25 2 Galop 16 300€ Nantes Arown 57,5 Plat
31/03/26 5 Galop 12 500€ Nantes Mediterranea Blues 57,5 Plat
31/03/26 4 Galop 12 800€ Nantes Icalero 59 Plat
31/03/26 1 Galop 11 500€ Nantes Vanina Runaway 56,5 Plat
31/03/26 3 Galop 19 200€ Nantes Mon Favori 56 Plat
14/04/26 2 Galop 19 200€ Nantes Une Aventure 59 Plat
14/04/26 6 Galop 16 300€ Nantes Kathalina 56 Plat
11/05/26 15 Galop 14 400€ Nantes Icalero 56,5 Plat
11/05/26 1 Galop 10 000€ Nantes Mahauri Sea 64,5 Plat
29/05/26 5 Galop 20 100€ Nantes Your My Heart 57 Plat
29/05/26 9 Galop 11 500€ Nantes Roma Antica 56,5 Plat
29/05/26 11 Galop 14 400€ Nantes El Meastro 57,5 Plat
16/06/26 12 Galop 19 200€ Nantes Last Show 54,5 Plat
16/06/26 10 Galop 25 900€ Nantes Yellow Hawk 58 Plat lire

N'a joué aucun rôle utile.

16/06/26 5 Galop 14 400€ Nantes Angel Breizh 56 Plat
16/06/26 5 Galop 19 200€ Nantes Super Alex 58,5 Plat lire

Très vite à la pointe du combat, n'a plafonné que pour finir.

01/07/26 9 Galop 14 400€ Nantes Mediterranea Blues 60 Plat lire

N'a joué aucun rôle utile.

01/07/26 8 Galop 16 300€ Nantes In The Army Now 57 Plat lire

N'a joué aucun rôle utile.

01/07/26 3 Galop 15 600€ Nantes Nuence'k 56,5 Plat
14/09/25 8 Galop 9 400€ Niort Butterfly Nebula 56,5 Plat
14/09/25 1 Galop 9 000€ Niort Bandalight 54,5 Plat
14/09/25 7 Galop 9 900€ Niort Lagoa Santa 57 Plat
08/09/19 5 Galop 10 000€ Niort Rapid Way 56,5 Plat